SP3NYX-11 Weather Reports


Display with metric or nautical units.
time (UTC)temp
F
wind
direction
speed
MPH
gust
MPH
rain 1hr
in
rain 24hr
in
rain mn
in
humidity
%
barometer
mb
20260905231403 54 272 15.0 24.0 0.04 6.42 0.04 73 1018.0
20260905231203 54 272 12.0 24.0 0.04 6.42 0.04 74 1018.0
20260905231003 54 271 15.0 24.0 0.04 6.42 0.04 74 1018.0
20260905230804 54 270 13.0 24.0 0.04 6.42 0.04 74 1018.0
20260905230602 54 270 18.0 24.0 0.04 6.42 0.04 74 1018.0
20260905230402 54 271 15.0 23.0 0.04 6.42 0.04 75 1018.0
20260905230203 53 270 13.0 24.0 0.04 6.42 0.04 75 1018.0
20260905230003 53 270 11.0 24.0 0.04 6.42 0.04 75 1018.0
20260905225802 53 271 13.0 24.0 0.04 6.42 0.04 76 1018.0
20260905225603 53 273 15.0 24.0 0.00 6.38 0.00 76 1018.0
20260905225203 53 272 14.0 24.0 0.00 6.38 0.00 77 1018.0
20260905225004 53 271 13.0 23.0 0.00 6.38 0.00 77 1018.0
20260905224802 53 270 11.0 23.0 0.00 6.38 0.00 78 1018.0
20260905224602 53 270 12.0 21.0 0.00 6.38 0.00 78 1018.0
20260905224404 53 270 13.0 21.0 0.00 6.38 0.00 78 1018.0
20260905224204 54 270 16.0 21.0 0.04 6.38 0.00 78 1018.0
20260905224003 54 270 16.0 21.0 0.04 6.38 0.00 78 1018.0
20260905223803 53 270 16.0 21.0 0.04 6.38 0.00 78 1018.0
20260905223603 53 268 13.0 21.0 0.04 6.38 0.00 78 1018.0
20260905223203 54 268 15.0 21.0 0.04 6.38 0.00 77 1018.0
20260905223002 53 267 12.0 21.0 0.04 6.38 0.00 77 1018.0
20260905222803 54 269 16.0 21.0 0.04 6.38 0.00 77 1018.0
20260905222603 53 271 12.0 21.0 0.04 6.38 0.00 77 1018.0
20260905222203 54 273 16.0 21.0 0.04 6.38 0.00 76 1018.0
20260905222003 54 273 12.0 21.0 0.04 6.38 0.00 75 1018.0
20260905221804 54 272 14.0 20.0 0.04 6.38 0.00 76 1018.0
20260905221602 54 270 15.0 24.0 0.04 6.38 0.00 76 1018.0
20260905221402 54 268 13.0 24.0 0.04 6.38 0.00 76 1018.0
20260905221003 54 269 14.0 24.0 0.04 6.38 0.00 75 1018.0
20260905220802 54 269 14.0 24.0 0.04 6.38 0.00 75 1018.0
20260905220603 54 270 15.0 21.0 0.04 6.38 0.00 75 1018.0
20260905220403 54 269 14.0 21.0 0.04 6.38 0.00 75 1018.0
20260905220202 54 269 12.0 21.0 0.04 6.38 0.00 75 1018.0
20260905215603 54 268 15.0 23.0 0.04 6.38 6.38 75 1018.0
20260905215403 54 270 14.0 23.0 0.04 6.38 6.38 75 1018.0
20260905215202 54 270 16.0 23.0 0.04 6.38 6.38 74 1018.0
20260905215003 54 272 13.0 23.0 0.04 6.38 6.38 75 1018.0
20260905214803 54 272 16.0 23.0 0.04 6.38 6.38 75 1018.0
20260905214603 54 273 13.0 23.0 0.04 6.38 6.38 75 1018.0
20260905214403 54 274 14.0 23.0 0.00 6.34 6.34 75 1018.0
20260905214203 54 273 17.0 25.0 0.00 6.34 6.34 75 1018.0
20260905214003 54 270 15.0 25.0 0.00 6.34 6.34 75 1018.0
20260905213804 54 270 17.0 25.0 0.00 6.34 6.34 75 1018.0
20260905213404 54 267 15.0 25.0 0.00 6.34 6.34 76 1018.0
20260905212803 54 266 14.0 24.0 0.00 6.34 6.34 77 1018.0
20260905212603 54 265 14.0 24.0 0.00 6.34 6.34 77 1018.0
20260905212402 54 266 15.0 24.0 0.00 6.34 6.34 77 1018.0
20260905212203 54 267 14.0 24.0 0.00 6.34 6.34 77 1018.0
20260905212003 54 266 15.0 23.0 0.00 6.34 6.34 78 1018.0
20260905211802 54 264 13.0 21.0 0.00 6.34 6.34 79 1018.0
20260905211604 54 263 9.0 22.0 0.04 6.34 6.34 79 1018.0
20260905211403 54 263 16.0 22.0 0.04 6.34 6.34 79 1018.0
20260905211002 54 261 14.0 22.0 0.04 6.34 6.34 79 1018.0
20260905210803 54 260 15.0 26.0 0.04 6.34 6.34 79 1018.0
20260905210603 54 260 18.0 26.0 0.04 6.34 6.34 79 1018.0
20260905210403 54 259 13.0 26.0 0.04 6.34 6.34 79 1018.0
20260905210204 54 259 11.0 26.0 0.04 6.34 6.34 78 1018.0
20260905205804 54 256 14.0 22.0 0.04 6.34 6.34 79 1018.0
20260905205603 54 254 12.0 21.0 0.04 6.34 6.34 79 1017.0
20260905205403 54 253 13.0 21.0 0.04 6.34 6.34 79 1017.0
20260905205204 54 253 14.0 21.0 0.04 6.34 6.34 79 1017.0
20260905205003 54 252 12.0 21.0 0.04 6.34 6.34 79 1017.0
20260905204603 54 254 11.0 20.0 0.04 6.34 6.34 79 1017.0
20260905204003 54 253 10.0 24.0 0.04 6.34 6.34 78 1017.0
20260905203804 54 254 11.0 24.0 0.04 6.34 6.34 78 1017.0
20260905203603 54 252 11.0 24.0 0.04 6.34 6.34 78 1017.0
20260905203403 54 248 18.0 24.0 0.04 6.34 6.34 77 1017.0
20260905203204 54 250 12.0 21.0 0.04 6.34 6.34 78 1017.0
20260905203004 54 252 13.0 22.0 0.04 6.34 6.34 78 1017.0
20260905202803 54 253 13.0 22.0 0.04 6.34 6.34 78 1017.0
20260905202603 54 255 16.0 22.0 0.04 6.34 6.34 78 1017.0
20260905202403 54 256 14.0 22.0 0.04 6.34 6.34 79 1017.0
20260905202002 54 251 13.0 21.0 0.04 6.34 6.34 79 1017.0
20260905201603 54 248 12.0 23.0 0.00 6.30 6.30 79 1017.0
20260905201402 54 249 12.0 23.0 0.00 6.30 6.30 79 1017.0
20260905201203 54 246 13.0 23.0 0.00 6.30 6.30 79 1017.0
20260905201003 54 247 13.0 23.0 0.00 6.30 6.30 79 1017.0
20260905200804 54 247 14.0 22.0 0.00 6.30 6.30 79 1017.0
20260905200603 54 245 14.0 19.0 0.00 6.30 6.30 79 1017.0
20260905200004 54 249 10.0 17.0 0.00 6.30 6.30 79 1017.0
20260905195804 54 248 9.0 19.0 0.00 6.30 6.30 79 1017.0
20260905195404 54 248 11.0 21.0 0.00 6.30 6.30 78 1017.0
20260905195004 54 249 8.0 21.0 0.00 6.30 6.30 77 1017.0
20260905194803 55 251 13.0 21.0 0.00 6.30 6.30 77 1017.0
20260905194603 55 250 10.0 21.0 0.00 6.30 6.30 76 1017.0
20260905194402 55 252 13.0 19.0 0.00 6.30 6.30 76 1017.0
20260905194204 55 252 14.0 19.0 0.00 6.30 6.30 76 1017.0
20260905194003 55 252 13.0 21.0 0.00 6.30 6.30 76 1017.0
20260905193802 55 249 11.0 21.0 0.00 6.30 6.30 76 1017.0
20260905193603 55 250 14.0 21.0 0.00 6.30 6.30 76 1017.0
20260905193403 55 248 15.0 21.0 0.00 6.30 6.30 76 1017.0
20260905193202 55 248 13.0 21.0 0.00 6.30 6.30 76 1017.0
20260905193002 55 248 13.0 19.0 0.00 6.30 6.30 77 1017.0
20260905192603 55 248 13.0 18.0 0.00 6.30 6.30 76 1017.0
20260905192404 55 247 12.0 18.0 0.00 6.30 6.30 76 1017.0
20260905192205 55 248 13.0 19.0 0.00 6.30 6.30 77 1017.0
20260905192002 55 250 12.0 20.0 0.00 6.30 6.30 76 1017.0
20260905191604 55 255 13.0 20.0 0.00 6.30 6.30 76 1017.0
20260905191202 55 255 13.0 20.0 0.00 6.30 6.30 77 1017.0
20260905191004 55 255 11.0 20.0 0.00 6.30 6.30 77 1017.0
20260905190404 55 251 13.0 19.0 0.00 6.30 6.30 77 1017.0
20260905190203 55 250 14.0 19.0 0.00 6.30 6.30 77 1017.0
20260905190002 55 249 10.0 17.0 0.00 6.30 6.30 78 1017.0
20260905185804 55 250 8.0 17.0 0.00 6.30 6.30 78 1017.0
20260905185603 55 250 8.0 17.0 0.00 6.30 6.30 77 1017.0
20260905185403 55 249 11.0 18.0 0.00 6.30 6.30 77 1017.0
20260905185003 55 248 8.0 21.0 0.00 6.30 6.30 77 1017.0
20260905184802 55 247 13.0 21.0 0.00 6.30 6.30 76 1017.0
20260905184607 55 246 13.0 21.0 0.00 6.30 6.30 76 1017.0
20260905184403 55 247 10.0 21.0 0.00 6.30 6.30 77 1017.0
20260905184204 55 247 14.0 21.0 0.00 6.30 6.30 77 1016.0
20260905184003 55 246 12.0 21.0 0.00 6.30 6.30 77 1016.0
20260905183802 55 243 12.0 21.0 0.00 6.34 6.30 77 1016.0
20260905183603 55 241 15.0 21.0 0.00 6.34 6.30 77 1016.0
20260905183403 55 238 11.0 19.0 0.00 6.38 6.30 77 1016.0
20260905183202 55 233 12.0 19.0 0.00 6.38 6.30 77 1016.0
20260905183003 55 230 10.0 19.0 0.00 6.38 6.30 77 1016.0
20260905182803 55 234 13.0 19.0 0.00 6.38 6.30 76 1016.0
20260905182604 55 233 10.0 17.0 0.00 6.38 6.30 75 1016.0
20260905182202 55 242 8.0 17.0 0.00 6.38 6.30 73 1016.0
20260905182004 56 246 11.0 17.0 0.00 6.38 6.30 73 1016.0
20260905181804 56 247 8.0 21.0 0.00 6.38 6.30 72 1016.0
20260905181405 56 247 9.0 21.0 0.00 6.42 6.30 72 1016.0
20260905181203 56 249 13.0 21.0 0.00 6.42 6.30 72 1016.0
20260905181002 56 251 15.0 21.0 0.00 6.42 6.30 72 1016.0
20260905180803 55 252 13.0 20.0 0.00 6.42 6.30 73 1016.0
20260905180603 55 253 11.0 19.0 0.00 6.42 6.30 73 1016.0
20260905180405 55 255 11.0 19.0 0.00 6.42 6.30 73 1016.0
20260905180004 56 256 14.0 20.0 0.00 6.46 6.30 72 1016.0
20260905175803 56 258 10.0 20.0 0.00 6.46 6.30 72 1016.0
20260905174804 56 273 16.0 19.0 0.04 6.46 6.30 72 1016.0
20260905174603 55 270 12.0 19.0 0.04 6.46 6.30 72 1016.0
20260905174404 56 270 14.0 19.0 0.04 6.46 6.30 72 1016.0
20260905174018 56 269 12.0 21.0 0.04 6.50 6.30 72 1016.0
20260905173602 56 270 12.0 21.0 0.04 6.50 6.30 72 1016.0
20260905173403 56 270 12.0 21.0 0.04 6.50 6.30 71 1016.0
20260905173203 56 270 15.0 21.0 0.04 6.50 6.30 71 1016.0
20260905173002 56 271 13.0 22.0 0.04 6.50 6.30 71 1016.0
20260905172603 56 273 15.0 24.0 0.04 6.50 6.30 72 1016.0
20260905172203 56 275 19.0 24.0 0.04 6.50 6.30 72 1016.0
20260905172004 56 276 17.0 24.0 0.04 6.50 6.30 72 1016.0
20260905171803 55 277 17.0 24.0 0.04 6.50 6.30 73 1016.0
20260905171603 55 276 13.0 23.0 0.12 6.50 6.30 74 1016.0
20260905171403 55 277 15.0 23.0 0.12 6.50 6.30 73 1016.0
20260905171202 55 275 15.0 21.0 0.12 6.50 6.30 73 1016.0
20260905170603 55 274 16.0 24.0 1.77 6.50 6.30 74 1016.0
20260905170402 55 275 11.0 24.0 2.40 6.50 6.30 74 1016.0
20260905170203 55 277 15.0 24.0 2.56 6.50 6.30 74 1016.0
20260905170002 55 277 18.0 24.0 2.99 6.50 6.30 75 1016.0
20260905165802 55 280 15.0 26.0 3.07 6.50 6.30 75 1016.0
20260905165603 55 279 14.0 26.0 3.07 6.50 6.30 75 1016.0
20260905165403 55 279 10.0 26.0 3.11 6.50 6.30 76 1016.0
20260905165203 55 281 18.0 26.0 3.15 6.50 6.30 74 1016.0
20260905164803 55 284 13.0 26.0 3.11 6.46 6.26 77 1016.0
20260905164402 55 290 12.0 26.0 3.11 6.50 6.26 77 1016.0
20260905164203 55 294 14.0 26.0 3.11 6.50 6.26 77 1016.0
20260905163803 54 301 17.0 25.0 3.11 6.77 6.26 78 1016.0
20260905163603 54 302 14.0 25.0 3.15 6.77 6.26 78 1016.0
20260905163405 54 302 17.0 25.0 3.15 6.77 6.26 78 1016.0
20260905163003 54 295 14.0 25.0 3.15 6.77 6.26 80 1016.0
20260905162603 55 289 15.0 30.0 3.27 6.77 6.26 79 1016.0
20260905162404 55 285 15.0 30.0 3.39 6.77 6.26 78 1016.0
20260905162202 55 281 12.0 35.0 3.39 6.77 6.26 78 1016.0
20260905162002 55 278 19.0 35.0 3.39 6.77 6.26 76 1016.0
20260905161603 55 271 21.0 40.0 3.31 6.69 6.18 73 1016.0
20260905161403 56 270 23.0 44.0 3.31 6.69 6.18 71 1016.0
20260905161202 56 271 27.0 44.0 3.31 6.69 6.18 70 1014.0
20260905161003 56 276 21.0 45.0 2.48 5.83 5.31 69 1014.0
20260905160602 57 282 29.0 45.0 1.50 4.84 4.33 61 1014.0
20260905160403 58 288 25.0 45.0 1.06 4.41 3.90 54 1014.0
20260905160003 63 277 22.0 34.0 0.55 3.82 3.31 39 1014.0
20260905155802 64 273 13.0 34.0 0.47 3.74 3.23 36 1014.0
20260905155603 64 269 15.0 34.0 0.47 3.74 3.23 36 1014.0
20260905155403 64 263 17.0 34.0 0.43 3.70 3.19 35 1014.0
20260905155203 65 261 13.0 23.0 0.39 3.66 3.15 35 1014.0
20260905155002 65 262 13.0 24.0 0.39 3.66 3.15 35 1014.0
20260905154804 65 263 10.0 28.0 0.39 3.66 3.15 35 1014.0
20260905154603 65 263 12.0 28.0 0.39 3.66 3.15 35 1014.0
20260905154402 65 264 10.0 28.0 0.39 3.66 3.15 35 1014.0
20260905154203 65 263 17.0 28.0 0.39 3.66 3.15 35 1014.0
20260905154004 65 262 19.0 28.0 0.39 3.66 3.15 35 1014.0
20260905153805 65 262 19.0 27.0 0.39 3.66 3.15 35 1014.0
20260905153615 65 264 14.0 33.0 0.35 3.62 3.11 35 1014.0
20260905153403 65 264 15.0 33.0 0.35 3.62 3.11 35 1014.0
20260905153203 66 260 14.0 33.0 0.35 3.62 3.11 35 1014.0
20260905152802 66 258 22.0 33.0 0.35 3.62 3.11 34 1014.0
20260905152602 67 251 16.0 30.0 0.12 3.39 2.87 34 1014.0
20260905152404 67 249 11.0 30.0 0.12 3.39 2.87 36 1014.0
20260905152204 65 251 19.0 30.0 0.12 3.39 2.87 37 1014.0
20260905152003 65 249 17.0 30.0 0.12 3.39 2.87 37 1014.0
20260905151804 64 247 13.0 25.0 0.12 3.39 2.87 38 1014.0
20260905150402 65 246 14.0 24.0 0.00 3.31 2.76 35 1014.0
20260905150003 65 249 14.0 21.0 0.00 3.31 2.76 36 1014.0
20260905145204 65 245 11.0 19.0 0.51 3.31 2.76 37 1014.0
20260905144603 66 257 6.0 21.0 0.75 3.31 2.76 37 1014.0
20260905144203 65 261 16.0 21.0 0.79 3.31 2.76 38 1014.0
20260905143203 66 255 12.0 22.0 1.14 3.31 2.76 37 1014.0
20260905142803 69 253 8.0 21.0 1.14 3.31 2.76 36 1014.0
20260905141803 65 264 14.0 26.0 1.14 3.31 2.76 39 1014.0
20260905141203 65 264 12.0 26.0 1.18 3.31 2.76 41 1014.0
20260905140403 66 270 11.0 35.0 1.18 3.31 2.76 40 1014.0
20260905134803 63 261 19.0 30.0 0.51 2.56 2.01 42 1014.0
20260905133403 64 239 14.0 27.0 0.12 2.17 1.61 39 1014.0
20260905133202 64 241 15.0 23.0 0.12 2.17 1.61 40 1014.0
20260905132603 65 241 14.0 24.0 0.12 2.17 1.61 39 1014.0
20260905131003 67 246 13.0 21.0 0.24 2.13 1.57 35 1014.0
20260905130603 68 255 10.0 23.0 0.24 2.13 1.57 35 1014.0
20260905125603 64 264 17.0 26.0 0.24 2.13 1.57 39 1014.0
20260905125205 64 253 11.0 21.0 0.16 2.05 1.50 38 1014.0
20260905124803 64 250 14.0 25.0 0.16 2.05 1.50 37 1014.0
20260905124205 65 247 13.0 29.0 0.31 2.05 1.50 37 1013.0
20260905123003 65 240 17.0 26.0 0.35 2.05 1.50 34 1013.0
20260905122804 65 234 18.0 24.0 0.35 2.05 1.50 33 1013.0
20260905122603 66 239 12.0 23.0 0.35 2.05 1.50 33 1014.0
20260905122403 67 238 11.0 23.0 0.43 2.05 1.50 34 1014.0
20260905122003 69 233 13.0 27.0 0.43 2.05 1.50 32 1014.0
20260905121802 69 233 12.0 27.0 0.43 2.05 1.50 33 1014.0
20260905121602 67 237 13.0 27.0 0.43 2.05 1.50 33 1014.0
20260905121004 68 257 10.0 22.0 0.28 1.89 1.34 34 1014.0
20260905120003 67 242 17.0 22.0 0.31 1.89 1.34 34 1014.0
20260905115603 66 243 11.0 22.0 0.31 1.89 1.34 33 1014.0
20260905115402 66 240 16.0 22.0 0.31 1.89 1.34 33 1014.0
20260905114804 69 238 15.0 33.0 0.47 1.89 1.34 33 1014.0
20260905113803 67 243 15.0 28.0 0.28 1.69 1.14 33 1014.0
20260905113404 66 241 12.0 28.0 0.28 1.69 1.14 34 1014.0
20260905113203 66 244 19.0 28.0 0.28 1.69 1.14 34 1014.0
20260905113003 67 243 16.0 28.0 0.28 1.69 1.14 33 1014.0
20260905112603 67 243 18.0 28.0 0.28 1.69 1.14 33 1014.0
20260905112403 68 244 15.0 28.0 0.20 1.61 1.06 33 1014.0
20260905112203 68 244 10.0 24.0 0.20 1.61 1.06 34 1014.0
20260905112003 67 244 10.0 24.0 0.20 1.61 1.06 34 1014.0
20260905111803 67 245 12.0 26.0 0.20 1.61 1.06 35 1014.0
20260905111603 67 247 16.0 28.0 0.20 1.61 1.06 35 1014.0
20260905111403 67 248 12.0 28.0 0.20 1.61 1.06 35 1014.0
20260905111205 67 248 14.0 28.0 0.20 1.61 1.06 35 1014.0
20260905111002 66 250 19.0 28.0 0.20 1.61 1.06 35 1014.0
20260905110803 66 252 18.0 28.0 0.16 1.57 1.02 35 1014.0
20260905110603 68 249 9.0 26.0 0.16 1.57 1.02 35 1014.0
20260905110203 66 242 19.0 26.0 0.16 1.57 1.02 37 1014.0
20260905110004 66 237 16.0 23.0 0.16 1.57 1.02 36 1014.0
20260905105803 68 236 14.0 30.0 0.16 1.57 1.02 36 1014.0
20260905105603 66 235 15.0 30.0 0.16 1.57 1.02 37 1014.0
20260905105402 66 236 17.0 30.0 0.16 1.57 1.02 36 1014.0
20260905105003 67 238 15.0 30.0 0.08 1.50 0.94 36 1014.0
20260905104603 67 234 14.0 22.0 0.00 1.42 0.87 36 1014.0
20260905104203 67 235 14.0 21.0 0.00 1.42 0.87 36 1014.0
20260905103803 67 243 16.0 21.0 0.00 1.42 0.87 37 1014.0
20260905103609 66 251 15.0 24.0 0.00 1.42 0.87 38 1014.0
20260905103403 67 258 14.0 25.0 0.00 1.42 0.87 38 1014.0
20260905103003 65 269 15.0 25.0 0.00 1.42 0.87 41 1014.0
20260905102803 64 268 15.0 25.0 0.00 1.42 0.87 42 1014.0
20260905102603 64 271 13.0 25.0 0.00 1.42 0.87 42 1014.0
20260905101003 65 246 13.0 21.0 0.00 1.42 0.87 43 1014.0
20260905100603 65 254 11.0 24.0 0.00 1.42 0.87 43 1014.0
20260905100403 65 252 9.0 24.0 0.12 1.42 0.87 42 1014.0
20260905100203 65 248 13.0 24.0 0.12 1.42 0.87 43 1014.0
20260905095802 65 242 13.0 21.0 0.12 1.42 0.87 42 1014.0
20260905095603 64 239 12.0 21.0 0.12 1.42 0.87 43 1014.0
20260905095403 64 239 11.0 18.0 0.12 1.42 0.87 44 1014.0
20260905095204 64 246 12.0 19.0 0.12 1.42 0.87 44 1014.0
20260905095003 64 252 11.0 26.0 0.12 1.42 0.87 44 1014.0
20260905094803 64 255 10.0 26.0 0.12 1.42 0.87 45 1014.0
20260905094603 63 256 12.0 26.0 0.12 1.42 0.87 45 1014.0
20260905094402 62 257 15.0 26.0 0.12 1.42 0.87 44 1014.0
20260905094202 64 254 15.0 26.0 0.12 1.42 0.87 45 1014.0
20260905094003 62 250 13.0 23.0 0.12 1.42 0.87 45 1014.0
20260905093803 63 246 15.0 23.0 0.12 1.42 0.87 46 1014.0
20260905093604 63 245 16.0 23.0 0.12 1.42 0.87 45 1014.0
20260905093403 63 242 16.0 23.0 0.12 1.42 0.87 45 1014.0
20260905093203 63 240 10.0 19.0 0.12 1.42 0.87 46 1014.0
20260905093003 63 249 10.0 22.0 0.12 1.42 0.87 45 1014.0
20260905092802 63 259 10.0 22.0 0.12 1.42 0.87 46 1014.0
20260905092403 64 260 8.0 22.0 0.12 1.42 0.87 45 1014.0
20260905092204 63 260 12.0 24.0 0.12 1.42 0.87 47 1014.0
20260905091803 62 258 15.0 26.0 0.12 1.42 0.87 45 1014.0
20260905091604 62 258 14.0 26.0 0.12 1.42 0.87 47 1014.0
20260905091403 62 258 15.0 27.0 0.12 1.42 0.87 46 1014.0
20260905091202 62 261 19.0 27.0 0.12 1.42 0.87 47 1014.0
20260905091003 62 258 17.0 27.0 0.12 1.42 0.87 47 1014.0
20260905090803 62 258 15.0 27.0 0.12 1.42 0.87 48 1014.0
20260905090604 62 260 16.0 27.0 0.12 1.42 0.87 48 1014.0
20260905090204 62 260 13.0 22.0 0.00 1.30 0.75 48 1014.0
20260905085803 63 258 13.0 18.0 0.00 1.30 0.75 49 1014.0
20260905085403 62 256 10.0 23.0 0.04 1.30 0.75 49 1014.0
20260905085206 62 257 13.0 23.0 0.12 1.30 0.75 50 1014.0
20260905085004 62 256 10.0 23.0 0.16 1.30 0.75 50 1014.0
20260905084802 62 253 12.0 23.0 0.16 1.30 0.75 52 1014.0
20260905084603 61 251 13.0 23.0 0.16 1.30 0.75 51 1014.0
20260905084403 62 253 11.0 20.0 0.16 1.30 0.75 51 1014.0
20260905084203 62 248 11.0 20.0 0.16 1.30 0.75 49 1014.0
20260905084009 63 252 11.0 19.0 0.16 1.30 0.75 48 1014.0
20260905083802 62 256 9.0 19.0 0.16 1.30 0.75 52 1014.0
20260905083403 62 258 9.0 20.0 0.16 1.30 0.75 52 1014.0
20260905083003 62 256 12.0 20.0 0.16 1.30 0.75 55 1014.0
20260905082603 61 254 11.0 18.0 0.16 1.30 0.75 54 1014.0
20260905082403 62 250 10.0 18.0 0.16 1.30 0.75 54 1014.0
20260905082203 61 253 12.0 18.0 0.16 1.30 0.75 54 1014.0
20260905081803 63 254 9.0 24.0 0.16 1.30 0.75 51 1014.0
20260905081604 64 261 11.0 24.0 0.16 1.30 0.75 50 1014.0
20260905081403 63 265 12.0 24.0 0.16 1.30 0.75 52 1014.0
20260905081205 62 266 9.0 24.0 0.16 1.30 0.75 54 1013.0
20260905081004 61 265 10.0 21.0 0.16 1.30 0.75 56 1013.0
20260905080803 62 260 11.0 19.0 0.16 1.30 0.75 56 1013.0
20260905080603 61 260 10.0 21.0 0.16 1.30 0.75 56 1013.0
20260905080204 61 256 10.0 29.0 0.16 1.30 0.75 57 1013.0
20260905080003 61 256 13.0 29.0 0.16 1.30 0.75 57 1013.0
20260905075803 60 257 16.0 29.0 0.16 1.30 0.75 57 1013.0
20260905075607 60 255 16.0 29.0 0.12 1.26 0.71 56 1013.0
20260905075202 61 253 12.0 22.0 0.00 1.14 0.59 56 1013.0
20260905075003 61 252 13.0 22.0 0.00 1.14 0.59 57 1013.0
20260905074803 61 256 14.0 22.0 0.00 1.14 0.59 57 1013.0
20260905074604 61 256 13.0 22.0 0.00 1.14 0.59 56 1013.0
20260905074203 62 263 9.0 22.0 0.00 1.14 0.59 58 1013.0
20260905074003 60 261 17.0 22.0 0.00 1.14 0.59 59 1013.0
20260905073803 61 258 13.0 23.0 0.00 1.14 0.59 58 1013.0
20260905073203 60 255 15.0 23.0 0.00 1.14 0.59 56 1013.0
20260905073003 61 259 14.0 23.0 0.00 1.14 0.59 58 1013.0
20260905072603 60 262 12.0 21.0 0.00 1.14 0.59 62 1013.0
20260905072202 60 256 14.0 23.0 0.00 1.14 0.59 62 1013.0
20260905072003 60 253 15.0 23.0 0.00 1.14 0.59 62 1013.0
20260905071808 60 255 14.0 23.0 0.00 1.14 0.59 63 1013.0
20260905071605 59 256 11.0 23.0 0.00 1.14 0.59 64 1013.0
20260905071203 59 261 8.0 20.0 0.00 1.14 0.59 65 1013.0
20260905071003 59 263 12.0 20.0 0.04 1.14 0.59 65 1013.0
20260905070802 59 262 13.0 22.0 0.04 1.14 0.59 65 1013.0
20260905070603 59 261 13.0 22.0 0.04 1.14 0.59 64 1013.0
20260905070403 59 260 12.0 22.0 0.04 1.14 0.59 64 1013.0
20260905070202 59 262 10.0 22.0 0.04 1.14 0.59 65 1013.0
20260905070004 58 265 17.0 23.0 0.04 1.14 0.59 65 1013.0
20260905065602 59 266 9.0 23.0 0.04 1.14 0.59 66 1013.0
20260905065404 58 264 12.0 23.0 0.04 1.14 0.59 68 1013.0
20260905064804 58 255 10.0 21.0 0.04 1.14 0.59 67 1013.0
20260905064603 58 254 11.0 21.0 0.04 1.14 0.59 68 1013.0
20260905064203 58 250 11.0 21.0 0.04 1.14 0.59 68 1013.0
20260905064003 59 249 9.0 19.0 0.04 1.14 0.59 68 1013.0
20260905063803 58 252 10.0 19.0 0.04 1.14 0.59 70 1013.0
20260905063403 58 250 13.0 21.0 0.04 1.14 0.59 70 1013.0
20260905063202 58 252 11.0 21.0 0.04 1.14 0.59 69 1013.0
20260905063002 58 253 9.0 21.0 0.04 1.14 0.59 71 1013.0
20260905062803 57 252 11.0 21.0 0.04 1.14 0.59 71 1013.0
20260905062603 57 250 14.0 21.0 0.04 1.14 0.59 71 1013.0
20260905062403 57 253 13.0 21.0 0.04 1.14 0.59 71 1013.0
20260905062202 57 253 12.0 21.0 0.04 1.14 0.59 71 1013.0
20260905061803 57 250 16.0 26.0 0.04 1.14 0.59 71 1013.0
20260905061203 57 254 13.0 26.0 0.04 1.14 0.59 72 1013.0
20260905061004 57 255 10.0 25.0 0.00 1.10 0.55 72 1013.0
20260905060803 57 255 18.0 25.0 0.00 1.10 0.55 72 1013.0
20260905060203 57 248 13.0 19.0 0.00 1.10 0.55 73 1013.0
20260905060003 57 248 12.0 19.0 0.00 1.10 0.55 73 1013.0
20260905055804 57 249 12.0 19.0 0.00 1.10 0.55 73 1013.0
20260905055604 57 249 13.0 19.0 0.00 1.10 0.55 73 1012.0
20260905055404 57 250 10.0 19.0 0.00 1.10 0.55 74 1012.0
20260905055003 57 248 13.0 26.0 0.00 1.10 0.55 74 1012.0
20260905054602 57 247 14.0 26.0 0.00 1.10 0.55 74 1012.0
20260905054403 57 248 16.0 26.0 0.00 1.10 0.55 74 1012.0
20260905054203 57 247 13.0 19.0 0.00 1.10 0.55 74 1012.0
20260905053603 57 245 9.0 19.0 0.00 1.10 0.55 74 1012.0
20260905053203 57 247 9.0 18.0 0.00 1.10 0.55 74 1012.0
20260905052203 57 249 13.0 21.0 0.00 1.10 0.55 75 1012.0
20260905052004 57 247 9.0 20.0 0.00 1.10 0.55 75 1012.0
20260905051803 57 248 9.0 22.0 0.00 1.10 0.55 76 1012.0
20260905051605 56 248 13.0 22.0 0.00 1.10 0.55 75 1012.0
20260905051203 56 251 9.0 22.0 0.00 1.10 0.55 76 1012.0
20260905051003 56 253 17.0 22.0 0.00 1.10 0.55 76 1012.0
20260905050803 56 251 11.0 21.0 0.00 1.10 0.55 76 1012.0
20260905050603 56 250 11.0 21.0 0.00 1.10 0.55 76 1012.0
20260905050403 56 248 7.0 21.0 0.00 1.10 0.55 76 1012.0
20260905050003 56 245 14.0 19.0 0.00 1.10 0.55 76 1012.0
20260905045803 56 244 12.0 17.0 0.00 1.10 0.55 77 1012.0
20260905045603 56 245 12.0 17.0 0.00 1.10 0.55 78 1012.0
20260905045404 56 246 10.0 24.0 0.00 1.10 0.55 78 1012.0
20260905045003 56 245 12.0 24.0 0.00 1.10 0.55 77 1012.0
20260905044804 56 247 11.0 24.0 0.00 1.10 0.55 78 1012.0
20260905044604 56 246 13.0 24.0 0.00 1.10 0.55 77 1012.0
20260905044403 56 244 8.0 19.0 0.00 1.10 0.55 78 1012.0
20260905044203 56 243 14.0 19.0 0.00 1.10 0.55 77 1012.0
20260905044003 56 245 11.0 19.0 0.00 1.10 0.55 78 1012.0
20260905043803 56 245 7.0 19.0 0.00 1.10 0.55 78 1012.0
20260905043602 56 245 14.0 19.0 0.00 1.10 0.55 78 1012.0
20260905043403 56 245 11.0 17.0 0.00 1.10 0.55 78 1012.0
20260905043204 56 247 11.0 21.0 0.00 1.10 0.55 78 1012.0
20260905043003 56 250 12.0 21.0 0.00 1.10 0.55 78 1012.0
20260905042803 56 250 8.0 21.0 0.00 1.10 0.55 79 1012.0
20260905042403 56 251 10.0 21.0 0.04 1.10 0.55 78 1011.0
20260905041803 56 241 10.0 20.0 0.04 1.10 0.55 79 1011.0
20260905041604 56 242 8.0 20.0 0.04 1.10 0.55 79 1011.0
20260905041403 56 242 11.0 20.0 0.04 1.10 0.55 78 1011.0
20260905041203 56 244 10.0 17.0 0.04 1.10 0.55 79 1011.0
20260905041005 56 245 11.0 19.0 0.04 1.10 0.55 79 1011.0
20260905040803 56 244 8.0 19.0 0.04 1.10 0.55 79 1011.0
20260905040402 57 243 12.0 19.0 0.04 1.10 0.55 78 1011.0
20260905040203 56 243 13.0 19.0 0.04 1.10 0.55 78 1011.0
20260905040003 56 244 11.0 19.0 0.04 1.10 0.55 79 1011.0
20260905035403 56 241 11.0 22.0 0.04 1.10 0.55 79 1011.0
20260905035204 57 244 11.0 22.0 0.04 1.10 0.55 78 1011.0
20260905035003 57 246 12.0 22.0 0.04 1.10 0.55 78 1011.0
20260905034805 57 250 11.0 22.0 0.04 1.10 0.55 77 1011.0
20260905034403 57 256 12.0 22.0 0.08 1.10 0.55 77 1011.0
20260905034204 57 256 12.0 22.0 0.08 1.10 0.55 76 1011.0
20260905034003 57 257 13.0 22.0 0.08 1.10 0.55 76 1011.0
20260905033803 57 258 13.0 22.0 0.08 1.10 0.55 76 1011.0
20260905033403 57 263 13.0 24.0 0.12 1.10 0.55 76 1011.0
20260905033203 57 261 16.0 24.0 0.12 1.10 0.55 76 1011.0
20260905033003 57 260 12.0 24.0 0.12 1.10 0.55 76 1011.0
20260905032804 57 257 13.0 24.0 0.12 1.10 0.55 75 1011.0
20260905032602 57 254 15.0 19.0 0.08 1.06 0.51 76 1011.0
20260905032403 57 254 13.0 24.0 0.08 1.06 0.51 76 1011.0
20260905032203 57 257 11.0 24.0 0.08 1.06 0.51 76 1011.0
20260905032003 57 258 14.0 24.0 0.08 1.06 0.51 76 1011.0
20260905031803 57 259 11.0 24.0 0.08 1.06 0.51 76 1011.0
20260905031603 57 263 11.0 24.0 0.08 1.06 0.51 75 1011.0
20260905031403 57 266 15.0 22.0 0.08 1.06 0.51 75 1011.0
20260905031203 57 265 11.0 23.0 0.08 1.06 0.51 76 1011.0
20260905031003 57 266 8.0 23.0 0.08 1.06 0.51 76 1011.0
20260905030804 58 266 12.0 23.0 0.08 1.06 0.51 75 1011.0
20260905030604 58 267 17.0 23.0 0.08 1.06 0.51 75 1011.0
20260905030203 58 264 13.0 24.0 0.08 1.06 0.51 76 1011.0
20260905030003 58 266 13.0 24.0 0.08 1.06 0.51 76 1011.0
20260905025803 58 267 13.0 24.0 0.08 1.06 0.51 76 1011.0
20260905025603 58 266 12.0 25.0 0.08 1.06 0.51 76 1011.0
20260905025403 58 265 17.0 28.0 0.08 1.06 0.51 75 1011.0
20260905025203 58 264 16.0 28.0 0.08 1.06 0.51 76 1011.0
20260905024603 58 262 17.0 28.0 0.08 1.06 0.51 76 1011.0
20260905024403 58 262 11.0 27.0 0.04 1.02 0.47 77 1011.0
20260905024203 58 262 16.0 27.0 0.04 1.02 0.47 76 1010.0
20260905024003 58 260 15.0 27.0 0.04 1.02 0.47 76 1010.0
20260905023803 58 260 18.0 27.0 0.04 1.02 0.47 76 1010.0
20260905023603 58 258 16.0 27.0 0.08 0.98 0.43 76 1010.0
20260905023403 58 259 14.0 22.0 0.08 0.98 0.43 77 1010.0
20260905023203 58 258 12.0 22.0 0.08 0.98 0.43 77 1010.0
20260905022803 58 255 15.0 22.0 0.08 0.98 0.43 77 1010.0
20260905022603 58 255 11.0 22.0 0.08 0.98 0.43 78 1010.0
20260905022403 58 254 15.0 22.0 0.08 0.98 0.43 77 1010.0
20260905022203 58 256 13.0 19.0 0.08 0.98 0.43 77 1010.0
20260905021803 58 256 11.0 20.0 0.08 0.98 0.43 77 1010.0
20260905021603 58 258 11.0 20.0 0.08 0.98 0.43 77 1010.0
20260905021404 58 255 13.0 20.0 0.08 0.98 0.43 77 1010.0
20260905021203 58 256 14.0 23.0 0.08 0.98 0.43 76 1010.0
20260905020603 58 259 9.0 27.0 0.08 0.98 0.43 76 1010.0
20260905020403 58 262 18.0 27.0 0.08 0.98 0.43 75 1010.0
20260905020203 58 264 19.0 27.0 0.08 0.98 0.43 75 1010.0
20260905020003 58 266 11.0 24.0 0.08 0.98 0.43 76 1010.0
20260905015803 58 266 10.0 24.0 0.08 0.98 0.43 75 1010.0
20260905015603 58 266 13.0 22.0 0.08 0.98 0.43 75 1010.0
20260905015403 58 268 13.0 28.0 0.12 0.98 0.43 75 1010.0
20260905015003 58 269 13.0 28.0 0.12 0.98 0.43 74 1010.0
20260905014803 58 270 15.0 28.0 0.12 0.98 0.43 74 1010.0
20260905014603 58 269 24.0 29.0 0.12 0.98 0.43 73 1010.0
20260905014403 58 270 15.0 29.0 0.12 0.98 0.43 74 1010.0
20260905014202 58 270 15.0 29.0 0.12 0.98 0.43 74 1010.0
20260905014004 58 270 13.0 29.0 0.12 0.98 0.43 74 1010.0
20260905013803 58 270 17.0 29.0 0.12 0.98 0.43 74 1010.0
20260905013603 58 271 16.0 24.0 0.04 0.91 0.35 75 1010.0
20260905013202 58 269 15.0 24.0 0.08 0.91 0.35 75 1010.0
20260905013003 58 268 13.0 22.0 0.08 0.91 0.35 75 1010.0
20260905012803 58 267 14.0 22.0 0.28 0.91 0.35 75 1010.0
20260905012604 58 266 15.0 29.0 0.28 0.91 0.35 76 1010.0
20260905012403 58 264 13.0 29.0 0.28 0.91 0.35 76 1010.0
20260905012203 58 264 14.0 29.0 0.28 0.91 0.35 76 1010.0
20260905012003 58 262 14.0 29.0 0.28 0.91 0.35 76 1010.0
20260905011803 59 260 21.0 29.0 0.28 0.91 0.35 76 1010.0
20260905011603 58 257 14.0 23.0 0.28 0.91 0.35 76 1010.0
20260905011403 59 259 14.0 23.0 0.28 0.91 0.35 75 1010.0
20260905011005 59 258 15.0 23.0 0.28 0.91 0.35 76 1010.0
20260905010803 59 257 15.0 22.0 0.31 0.91 0.35 76 1010.0
20260905010603 59 258 15.0 24.0 0.31 0.91 0.35 76 1010.0
20260905010405 58 256 8.0 25.0 0.31 0.91 0.35 77 1010.0
20260905010205 59 256 14.0 25.0 0.31 0.91 0.35 76 1010.0
20260905010003 59 255 8.0 25.0 0.35 0.91 0.35 76 1010.0
20260905005803 59 258 10.0 25.0 0.35 0.91 0.35 76 1010.0
20260905005604 59 258 15.0 25.0 0.35 0.91 0.35 76 1010.0
20260905005203 59 262 15.0 21.0 0.31 0.87 0.31 76 1010.0
20260905005003 59 264 12.0 24.0 0.31 0.87 0.31 77 1010.0
20260905004804 59 261 10.0 24.0 0.31 0.87 0.31 77 1010.0
20260905004603 59 258 15.0 24.0 0.31 0.87 0.31 76 1010.0
20260905004403 59 258 13.0 24.0 0.31 0.87 0.31 76 1010.0
20260905004207 59 259 19.0 24.0 0.31 0.87 0.31 76 1010.0
20260905004003 59 256 16.0 28.0 0.31 0.87 0.31 76 1010.0
20260905003803 59 261 16.0 29.0 0.31 0.87 0.31 76 1010.0
20260905003604 59 264 11.0 29.0 0.31 0.87 0.31 77 1010.0
20260905003403 59 262 15.0 29.0 0.31 0.87 0.31 77 1010.0
20260905003203 59 259 12.0 29.0 0.28 0.83 0.28 77 1010.0
20260905002802 59 254 10.0 27.0 0.08 0.63 0.08 78 1010.0
20260905002603 59 254 13.0 27.0 0.08 0.63 0.08 77 1010.0
20260905002004 59 253 21.0 27.0 0.08 0.63 0.08 77 1010.0
20260905001403 59 251 12.0 28.0 0.08 0.63 0.08 79 1010.0
20260905001204 59 253 14.0 28.0 0.08 0.63 0.08 79 1009.0
20260905001003 59 253 15.0 28.0 0.08 0.63 0.08 79 1009.0
20260905000803 59 253 14.0 28.0 0.04 0.59 0.04 79 1009.0
20260905000603 59 253 15.0 28.0 0.04 0.59 0.04 79 1009.0
20260905000403 59 251 13.0 28.0 0.04 0.59 0.04 79 1009.0
20260905000204 59 249 15.0 28.0 0.04 0.59 0.04 79 1009.0
20260905000003 59 250 10.0 26.0 0.00 0.55 0.00 80 1009.0
20260904235804 59 250 14.0 26.0 0.00 0.55 0.00 79 1009.0
20260904235603 59 250 12.0 26.0 0.00 0.55 0.00 79 1009.0
20260904235403 59 252 21.0 26.0 0.00 0.55 0.00 79 1009.0
20260904234803 59 253 13.0 28.0 0.00 0.55 0.00 81 1009.0
20260904234604 59 254 9.0 28.0 0.00 0.55 0.00 81 1009.0
20260904234004 59 252 19.0 28.0 0.00 0.55 0.00 80 1009.0
20260904233803 59 253 11.0 25.0 0.00 0.55 0.00 81 1009.0
20260904233604 59 251 14.0 26.0 0.00 0.55 0.00 81 1009.0
20260904233204 59 249 15.0 26.0 0.00 0.55 0.00 80 1009.0
20260904233003 59 251 13.0 28.0 0.00 0.55 0.00 80 1009.0
20260904232803 59 248 19.0 28.0 0.00 0.55 0.00 80 1009.0
20260904232604 59 250 17.0 28.0 0.00 0.55 0.00 80 1009.0
20260904232203 59 249 17.0 28.0 0.00 0.55 0.00 81 1009.0
20260904232003 59 247 9.0 25.0 0.00 0.55 0.00 82 1009.0
20260904231804 59 249 15.0 25.0 0.00 0.55 0.00 82 1009.0
20260904231603 59 245 13.0 25.0 0.00 0.55 0.00 82 1009.0